Brescia / Montichiari Airport

Jump to: basic info | weather | frequencies | runways | comments

Related pages: nearby airports | nearby navaids | notams | map

Basic information (top)

Codes: VBS LIPO
Location: lon 45.428902, lat 10.330600, elev 355 ft / 108 m msl
Status: medium_airport
Scheduled airline service: yes
Links: Wikipedia Mobile

Weather (top)

Current conditions (rec'd 2014/08/21 18:50Z):

LIPO 211850Z 05004KT 9999 FEW075 22/16 Q1013

Airport forecast (rec'd 2014/08/21 18:21Z):

TAF LIPO 211700Z 2118/2218 04005KT 9999 SCT050 
      TEMPO 2123/2202 TSRA

Frequencies (top)

Verify before use: may be inaccurate or out of date.

APP: 124.45 MHz (GARDA APP)
TWR: 119.4 MHz (TWR)

Runways (top)

14/32: 9,810 x 148 ft (2,990 x 45 m) — paved — lighted — threshold 14 displaced 984 ft (300 m) — threshold 32 displaced 640 ft (195 m)

Latest comments (top)

No comments yet for Brescia / Montichiari Airport

More... (top)

See also NOTAMs and nearby airports and navaids, or visit the Brescia / Montichiari Airport page at the main OurAirports website..